Roseau, MN

11:34 AM CST on February 10, 2016 (GMT -0600)
Roseau Municipal-Billberg

Weather History for KROX - May, 2013

Change the Weather History Date:

Thursday, May 2, 2013

  Actual Average Record
Temperature  
Mean Temperature 32 °F -  
Max Temperature 37 °F 58 °F 84 °F (2015)
Min Temperature 28 °F 31 °F 5 °F (1997)
Degree Days  
Heating Degree Days 32    
Moisture  
Dew Point 24 °F    
Average Humidity 72    
Maximum Humidity 80    
Minimum Humidity 60    
Precipitation  
Precipitation 0.00 in - - ()
Sea Level Pressure  
Sea Level Pressure 30.61 in    
Wind  
Wind Speed 7 mph (NNW)    
Max Wind Speed 12 mph    
Max Gust Speed 10 mph    
Visibility 10 miles    
Events      
Averages and records for this station are not official NWS values.
T = Trace of Precipitation, MM = Missing Value Source: NWS Daily Summary

Daily Weather History Graph

Daily Weather History Graph

Search for Another Location

Airport or City:

Trip Planner

Search our weather history database for the weather conditions in past years. The results will help you decide how hot, cold, wet, or windy it might be!

Date:

Astronomy

May. 02, 2013 Rise Set
Actual Time 6:00 AM CDT 8:40 PM CDT
Civil Twilight 5:24 AM CDT 9:16 PM CDT
Nautical Twilight 4:39 AM CDT 10:01 PM CDT
Astronomical Twilight 3:45 AM CDT 10:56 PM CDT
Moon 2:25 AM CDT (5/2) 12:55 PM CDT (5/2)
Length of Visible Light 15h 51m
Length of Day
14h 40m
Waning Gibbous, 47% of the Moon is Illuminated
May 2
Waning Gibbous
May 9
New
May 17
First Quarter
May 24
Full
May 31
Last Quarter

Hourly Weather History & Observations

Time (CDT) Temp. Windchill Dew Point Humidity Pressure Visibility Wind Dir Wind Speed Gust Speed Precip Events Conditions
12:14 AM 30.2 °F 24.3 °F 24.8 °F 80% 30.59 in 10.0 mi WNW 5.8 mph - N/A   Overcast
12:34 AM 30.2 °F 22.6 °F 24.8 °F 80% 30.59 in 10.0 mi WNW 8.1 mph - N/A   Overcast
12:54 AM 30.2 °F 24.3 °F 24.8 °F 80% 30.59 in 10.0 mi WNW 5.8 mph - N/A   Mostly Cloudy
1:14 AM 30.2 °F 23.4 °F 24.8 °F 80% 30.59 in 10.0 mi WNW 6.9 mph - N/A   Mostly Cloudy
1:34 AM 30.2 °F 24.3 °F 24.8 °F 80% 30.59 in 10.0 mi WNW 5.8 mph - N/A   Mostly Cloudy
1:54 AM 30.2 °F 24.3 °F 24.8 °F 80% 30.59 in 10.0 mi WNW 5.8 mph - N/A   Mostly Cloudy
2:14 AM 30.2 °F 23.4 °F 24.8 °F 80% 30.59 in 10.0 mi WNW 6.9 mph - N/A   Overcast
2:34 AM 30.2 °F 21.3 °F 24.8 °F 80% 30.59 in 10.0 mi NW 10.4 mph - N/A   Overcast
2:54 AM 30.2 °F 21.9 °F 24.8 °F 80% 30.60 in 10.0 mi NW 9.2 mph - N/A   Overcast
3:14 AM 30.2 °F 24.3 °F 24.8 °F 80% 30.60 in 10.0 mi NW 5.8 mph - N/A   Overcast
3:34 AM 30.2 °F 23.4 °F 24.8 °F 80% 30.60 in 10.0 mi NW 6.9 mph - N/A   Overcast
3:54 AM 30.2 °F 26.7 °F 24.8 °F 80% 30.61 in 10.0 mi NW 3.5 mph - N/A   Overcast
4:14 AM 30.2 °F 24.3 °F 24.8 °F 80% 30.61 in 10.0 mi NW 5.8 mph - N/A   Overcast
4:34 AM 30.2 °F 25.4 °F 24.8 °F 80% 30.61 in 10.0 mi NNW 4.6 mph - N/A   Overcast
4:54 AM 30.2 °F 25.4 °F 24.8 °F 80% 30.61 in 10.0 mi NW 4.6 mph - N/A   Overcast
5:14 AM 30.2 °F 22.6 °F 24.8 °F 80% 30.62 in 10.0 mi NW 8.1 mph - N/A   Overcast
5:34 AM 30.2 °F 21.9 °F 23.0 °F 75% 30.62 in 10.0 mi NNW 9.2 mph - N/A   Overcast
5:54 AM 30.2 °F 20.8 °F 21.2 °F 69% 30.62 in 10.0 mi NNW 11.5 mph - N/A   Overcast
6:14 AM 28.4 °F 19.7 °F 21.2 °F 74% 30.62 in 10.0 mi NNW 9.2 mph - N/A   Overcast
6:34 AM 28.4 °F 21.2 °F 21.2 °F 74% 30.63 in 10.0 mi NW 6.9 mph 10.4 mph N/A   Overcast
6:54 AM 28.4 °F 19.1 °F 21.2 °F 74% 30.65 in 10.0 mi NW 10.4 mph - N/A   Overcast
7:14 AM 28.4 °F 19.7 °F 21.2 °F 74% 30.65 in 10.0 mi NW 9.2 mph - N/A   Overcast
7:34 AM 28.4 °F 19.1 °F 21.2 °F 74% 30.65 in 10.0 mi NW 10.4 mph - N/A   Overcast
7:54 AM 28.4 °F 19.1 °F 19.4 °F 69% 30.65 in 10.0 mi NNW 10.4 mph - N/A   Overcast
8:14 AM 28.4 °F 20.4 °F 21.2 °F 74% 30.66 in 10.0 mi NNW 8.1 mph - N/A   Overcast
8:35 AM 28.4 °F 21.2 °F 21.2 °F 74% 30.67 in 10.0 mi NNW 6.9 mph - N/A   Mostly Cloudy
8:54 AM 28.4 °F 21.2 °F 19.4 °F 69% 30.67 in 10.0 mi NNW 6.9 mph - N/A   Mostly Cloudy
9:14 AM 28.4 °F 21.2 °F 21.2 °F 74% 30.67 in 10.0 mi NNW 6.9 mph - N/A   Mostly Cloudy
9:34 AM 28.4 °F 20.4 °F 21.2 °F 74% 30.67 in 10.0 mi North 8.1 mph - N/A   Mostly Cloudy
9:54 AM 28.4 °F 19.7 °F 23.0 °F 80% 30.67 in 10.0 mi North 9.2 mph - N/A   Mostly Cloudy
10:14 AM 30.2 °F 21.9 °F 23.0 °F 75% 30.67 in 10.0 mi NNW 9.2 mph - N/A   Mostly Cloudy
10:34 AM 30.2 °F 23.4 °F 23.0 °F 75% 30.67 in 10.0 mi NNW 6.9 mph - N/A   Mostly Cloudy
10:54 AM 30.2 °F - 24.8 °F 80% 30.67 in 10.0 mi Calm Calm - N/A   Mostly Cloudy
11:14 AM 30.2 °F 22.6 °F 24.8 °F 80% 30.67 in 10.0 mi North 8.1 mph - N/A   Mostly Cloudy
11:34 AM 30.2 °F 23.4 °F 24.8 °F 80% 30.66 in 10.0 mi North 6.9 mph - N/A   Mostly Cloudy
11:54 AM 32.0 °F 24.8 °F 24.8 °F 75% 30.67 in 10.0 mi North 8.1 mph - N/A   Mostly Cloudy
12:14 PM 32.0 °F 25.6 °F 24.8 °F 75% 30.66 in 10.0 mi North 6.9 mph - N/A   Scattered Clouds
12:34 PM 33.8 °F 27.7 °F 24.8 °F 70% 30.66 in 10.0 mi NNW 6.9 mph - N/A   Scattered Clouds
12:52 PM 33.8 °F 28.6 °F 24.8 °F 70% 30.65 in 10.0 mi North 5.8 mph - N/A   Scattered Clouds
1:14 PM 33.8 °F 27.0 °F 24.8 °F 70% 30.65 in 10.0 mi NNW 8.1 mph - N/A   Unknown
1:34 PM 33.8 °F 26.4 °F 24.8 °F 70% 30.64 in 10.0 mi North 9.2 mph - N/A   Scattered Clouds
2:14 PM 33.8 °F 26.4 °F 24.8 °F 70% 30.63 in 10.0 mi North 9.2 mph - N/A   Scattered Clouds
2:34 PM 33.8 °F 29.6 °F 23.0 °F 65% 30.63 in 10.0 mi NE 4.6 mph - N/A   Scattered Clouds
2:55 PM 35.6 °F 31.7 °F 24.8 °F 65% 30.62 in 10.0 mi North 4.6 mph - N/A   Clear
3:14 PM 35.6 °F - 24.8 °F 65% 30.62 in 10.0 mi Calm Calm - N/A   Clear
3:34 PM 35.6 °F 29.2 °F 24.8 °F 65% 30.61 in 10.0 mi NNE 8.1 mph - N/A   Scattered Clouds
3:54 PM 35.6 °F 29.2 °F 24.8 °F 65% 30.61 in 10.0 mi North 8.1 mph - N/A   Scattered Clouds
4:14 PM 37.4 °F 32.8 °F 24.8 °F 60% 30.60 in 10.0 mi NNE 5.8 mph - N/A   Scattered Clouds
4:35 PM 37.4 °F 30.8 °F 24.8 °F 60% 30.59 in 10.0 mi NNE 9.2 mph - N/A   Scattered Clouds
4:54 PM 37.4 °F 32.8 °F 24.8 °F 60% 30.59 in 10.0 mi North 5.8 mph - N/A   Scattered Clouds
5:14 PM 37.4 °F 33.8 °F 24.8 °F 60% 30.59 in 10.0 mi North 4.6 mph - N/A   Scattered Clouds
5:35 PM 37.4 °F 32.1 °F 24.8 °F 60% 30.58 in 10.0 mi North 6.9 mph - N/A   Scattered Clouds
5:54 PM 37.4 °F 32.1 °F 24.8 °F 60% 30.58 in 10.0 mi NNE 6.9 mph - N/A   Mostly Cloudy
6:14 PM 37.4 °F 30.8 °F 24.8 °F 60% 30.58 in 10.0 mi North 9.2 mph - N/A   Mostly Cloudy
6:35 PM 37.4 °F 32.1 °F 24.8 °F 60% 30.58 in 10.0 mi North 6.9 mph - N/A   Mostly Cloudy
6:54 PM 37.4 °F 32.1 °F 24.8 °F 60% 30.58 in 10.0 mi North 6.9 mph - N/A   Overcast
7:14 PM 37.4 °F 30.3 °F 24.8 °F 60% 30.57 in 10.0 mi North 10.4 mph - N/A   Overcast
7:35 PM 37.4 °F 34.9 °F 24.8 °F 60% 30.57 in 10.0 mi North 3.5 mph - N/A   Overcast
7:54 PM 37.4 °F 30.8 °F 26.6 °F 65% 30.58 in 10.0 mi East 9.2 mph - N/A   Overcast
8:14 PM 35.6 °F 29.9 °F 26.6 °F 70% 30.58 in 10.0 mi East 6.9 mph - N/A   Overcast
8:35 PM 35.6 °F 29.9 °F 26.6 °F 70% 30.58 in 10.0 mi ENE 6.9 mph - N/A   Overcast
8:54 PM 35.6 °F 29.9 °F 26.6 °F 70% 30.58 in 10.0 mi East 6.9 mph - N/A   Overcast
9:14 PM 35.6 °F 30.7 °F 24.8 °F 65% 30.58 in 10.0 mi East 5.8 mph - N/A   Overcast
9:35 PM 33.8 °F 27.7 °F 24.8 °F 70% 30.58 in 10.0 mi East 6.9 mph - N/A   Overcast
9:54 PM 33.8 °F 29.6 °F 24.8 °F 70% 30.58 in 10.0 mi East 4.6 mph - N/A   Scattered Clouds
10:14 PM 33.8 °F 28.6 °F 24.8 °F 70% 30.57 in 10.0 mi East 5.8 mph - N/A   Clear
10:35 PM 32.0 °F 27.5 °F 24.8 °F 75% 30.57 in 10.0 mi East 4.6 mph - N/A   Clear
10:54 PM 32.0 °F - 24.8 °F 75% 30.57 in 10.0 mi Calm Calm - N/A   Clear
11:14 PM 32.0 °F - 24.8 °F 75% 30.56 in 10.0 mi Calm Calm - N/A   Clear
11:35 PM 32.0 °F - 24.8 °F 75% 30.56 in 10.0 mi Calm Calm - N/A   Clear
11:54 PM 32.0 °F - 24.8 °F 75% 30.56 in 10.0 mi Calm Calm - N/A   Clear